This is the latest recevied weather packets stored in our database for station/object HS5BOG-13. If no packets are shown the sender has not sent any weather packets the latest 10 day(s).
| Time | Temp. | Humidity | Pressure | Rain* | Wind** | Luminosity | Snow |
|---|---|---|---|---|---|---|---|
| 1778336614 | 28.33° C | 91% | 993.9 hPa | - | - | - | - |
| 1778336011 | 28.33° C | 91% | 993.8 hPa | - | - | - | - |
| 1778335400 | 28.33° C | 91% | 993.5 hPa | - | - | - | - |
| 1778332977 | 28.89° C | 89% | 993.3 hPa | - | - | - | - |
| 1778332372 | 28.89° C | 86% | 993.2 hPa | - | - | - | - |
| 1778331766 | 28.89° C | 84% | 993.2 hPa | - | - | - | - |
| 1778331161 | 29.44° C | 80% | 993.3 hPa | - | - | - | - |
| 1778329949 | 29.44° C | 75% | 993 hPa | - | - | - | - |
| 1778329344 | 29.44° C | 74% | 992.7 hPa | - | - | - | - |
| 1778328738 | 30° C | 72% | 992.4 hPa | - | - | - | - |
| 1778328133 | 30° C | 70% | 992.2 hPa | - | - | - | - |
| 1778327527 | 30.56° C | 68% | 991.8 hPa | - | - | - | - |
| 1778326316 | 30.56° C | 66% | 991.6 hPa | - | - | - | - |
| 1778325105 | 30.56° C | 66% | 991 hPa | - | - | - | - |
| 1778323894 | 30.56° C | 65% | 990.7 hPa | - | - | - | - |
| 1778322682 | 31.11° C | 66% | 990.3 hPa | - | - | - | - |
| 1778322077 | 31.11° C | 65% | 990 hPa | - | - | - | - |
| 1778321471 | 31.11° C | 66% | 989.9 hPa | - | - | - | - |
| 1778319049 | 31.67° C | 66% | 989.1 hPa | - | - | - | - |
| 1778318443 | 31.67° C | 66% | 989 hPa | - | - | - | - |
| 1778317838 | 31.67° C | 66% | 989.1 hPa | - | - | - | - |
| 1778316627 | 31.11° C | 64% | 989.1 hPa | - | - | - | - |
| 1778316021 | 31.11° C | 67% | 989.2 hPa | - | - | - | - |
| 1778315415 | 31.11° C | 67% | 989.3 hPa | - | - | - | - |
| 1778314810 | 31.11° C | 68% | 989.4 hPa | - | - | - | - |
* Rain since midnight (hover to see other rain measurements)
** Current wind speed in m/s (hover to see current wind gust speed)